Location: G�kdere
(37.0328°N, 30.9000°E)
Time: 02:52:12
(UTC+00:00)

SAR-Lupe-4 - Pass Details

Date: 03 March 2021
Orbit: 483 x 483 km, 98.2° (Epoch: 13 April)

Event Time Altitude Azimuth Distance (km) Brightness Sun altitude
Rises 16:28:35 0° 18° (NNE) 2,556 7.0 -8.0°
Reaches altitude 10° 16:30:42 10° 24° (NNE) 1,671 6.0 -8.4°
Maximum altitude 16:34:12 50° 101° (E) 620 3.7 -9.1°
Drops below altitude 10° 16:37:40 10° 178° (S) 1,657 6.3 -9.8°
Sets 16:39:46 0° 183° (S) 2,532 7.3 -10.2°
